Location: Ceske Budejovice
(48.9830°N, 14.4670°E)
Time: 02:57:40
(UTC+01:00)

ISS - Visible Passes

Search period start: 24 November 2017 00:00
Search period end: 04 December 2017 00:00
Orbit: 402 x 407 km, 51.6° (Epoch: 24 November)

Date Brightness Start Highest point End Pass type
(mag) Time Alt. Az. Time Alt. Az. Time Alt. Az.
28 Nov -2.0 18:16:00 10° SSW 18:17:50 22° S 18:17:50 22° S visible
29 Nov -1.8 17:24:28 10° S 17:26:39 17° SE 17:27:45 14° ESE visible
29 Nov -1.1 18:59:25 10° WSW 19:00:25 18° WSW 19:00:25 18° WSW visible
30 Nov -3.4 18:07:11 10° SW 18:10:15 49° SSE 18:10:15 49° SSE visible
01 Dec -2.6 17:15:08 10° SSW 17:18:04 31° SE 17:20:01 17° E visible
01 Dec -1.5 18:51:06 10° W 18:52:40 25° W 18:52:40 25° W visible
02 Dec -4.0 17:58:40 10° WSW 18:01:58 85° SSE 18:02:23 65° E visible
03 Dec -3.5 17:06:21 10° SW 17:09:34 57° SSE 17:12:04 16° ENE visible
03 Dec -1.9 18:42:52 10° W 18:44:42 29° WNW 18:44:42 29° WNW visible
